sat.trackr.live / text

‹ back to catalog

STARLINK-37139

NORAD 68317 · 2026-057Z

PAYLOAD ACTIVE UNKNOWN

§ Identity

Operator
Country
US
Launch date
2026-03-20
Launch site
AFWTR
Launch vehicle
Mass (kg)
RCS (m²)

Purposes: comms

External: N2YO · Heavens-Above · Gunter

§ Orbital elements

Epoch: 2026-09-19T20:33:14.841792Z

Period
93.91 min
Inclination
97.2894°
Eccentricity
0.0000747
Mean motion
15.33448273 rev/d
Perigee alt
465.0 km
Apogee alt
466.0 km
Semi-major
6,843.7 km
B*
5.2864e-4
RAAN
28.2457°
Arg perigee
114.6537°
Mean anomaly
245.4784°
Rev number
2,841

§ Raw data

STARLINK-371391 68317U 26057Z   26262.85642178  .00017032  00000+0  52864-3 0  99942 68317  97.2894  28.2457 0000747 114.6537 245.4784 15.33448273 28418

JSON: /api/v1/satellites/68317 · /tle

For live sub-satellite position, see the globe view (requires WebGL).

§ Visibility from observer

Set your observer location to see the next 7 days of passes ≥ 10°. The values pass through the URL so the page stays shareable.

No JS? Fill the form by hand. The geolocation button needs JavaScript.